MIDAS 3 DEB, 6215

Orbit data source: Space-Track

MIDAS 3 DEB, 6215 is space debris in LEO originally from a launch on Wed, 12 Jul 1961 UTC launched from the Air Force Western Test Range (AFWTR). Debris objects in space refer to the collection of defunct objects orbiting the Earth. Examples of debris include non-operational satellites, rocket bodies, and fragments generated from explosions, collisions, or faulty payload assembly.

Loading next visibility...
MIDAS 3 DEB details
Identifier
6215, 1961-018E
Orbit
LEO
Last TLE update3 days ago
Origin
Flag of USUSAF SSD (US)
ManufacturerUnknown
MissionSpacecraft
Bus & MotorUnknown
MassUnknown
Launch date (UTC)
1961-07-12 (63 years ago)
Launch vehicleUnknown
Launch site
Air Force Western Test Range (AFWTR)
Object type
Payload
Rocket body
Debris
Shape & HBRUnknown
Radar Cross SectionMedium (>0.1 m² and <1 m²)

Expand to show TLE details & history

TLE from 3 days ago
0 MIDAS 3 DEB
1 06215U 61018E   24353.91623718  .00000025  00000-0  85075-2 0  9998
2 06215  91.0956 180.2344 0056096 103.3739 257.3394  8.90941955331358
Epoch: 2024-12-18T21:59Z
Definitive object data (Epoch: 2024-12-18T21:59:22.892Z)
Latitude-0.00006°
Longitude122.38543°
Altitude3,465.32 km
Speed6.36 km/s
True Right ascension12h 00m 56s
True Declination0° 00' 00"
Sunlit
Object was in daylight at TLE epoch
Visualization TLE readout
Latitude17.38487°
Longitude-57.16256°
Altitude3,426.377 km
Speed6.386 km/s
Apparent Right ascension00h 06m 04s
Apparent Declination-4° 37' 36"
Sunlit
Object is in daylight
Visualization observer readout
Local Sidereal Time12:12:26
Azimuth2.743° NNE
Elevation-54.681°
Doppler factor1
Orbital elements
Apogee altitude3,503.594 km
Perigee altitude3,393.347 km
Semi-major axis9,826.608 km
Eccentricity0.0056096
Inclination91.0956°
RAAN180.2344°
Arg. of periapsis103.3739°
True anomaly256.71319°
Mean anomaly257.3394°
Eccentric anomaly257.0262°
Mean motion2.22812 °/min
BSTAR0.0085075
Orbital period161.57 mins
Loading maneuver chart data...
Loading historical data...
Loading historical data...
Loading historical data...
Loading historical data...
Loading historical data...
Loading historical data...
Loading historical data...

MIDAS 3 DEB Visibility forecast

Observer location: undefined°, undefined

Span
Click to sort rows by Start time (UTC) header in descending order
Start Az.
Max El. time (UTC)
Max El. Az.
Max El.
End time (UTC)
End Az.
30 mins2024-12-21 14:43:30.961Z223.769° SW2024-12-21 14:58:30.961Z285.107° WNW29.319°2024-12-21 15:13:30.961Z346.099° N
32 mins2024-12-21 23:31:30.961Z10.61° NNE2024-12-21 23:47:30.961Z86.967° E38.338°2024-12-22 00:03:30.961Z157.851° S
30 mins2024-12-22 02:12:30.961Z354.668° N2024-12-22 02:27:30.961Z287.77° WNW36.399°2024-12-22 02:42:30.961Z224.385° SW
20 mins2024-12-22 09:45:30.961Z87.781° E2024-12-22 09:55:30.961Z50.028° ENE18.857°2024-12-22 10:05:30.961Z13.395° NNE
33 mins2024-12-22 12:15:30.961Z162.86° S2024-12-22 12:31:30.961Z73.673° E44.424°2024-12-22 12:48:30.961Z358.839° N
|